Weather History for Charleston, SC

Change the Weather History Date:

Saturday, November 26, 2011

  Actual Average Record
Temperature  
Mean Temperature 59 °F 56 °F  
Max Temperature 72 °F 67 °F 82 °F (1973)
Min Temperature 45 °F 45 °F 19 °F (1950)
Degree Days  
Heating Degree Days 6 10  
Month to date heating degree days 155 181  
Since 1 July heating degree days 247 250  
Cooling Degree Days 0 1  
Month to date cooling degree days 18 31  
Year to date cooling degree days 2682 2295  
Growing Degree Days 8 (Base 50)    
Moisture  
Dew Point 51 °F    
Average Humidity 77    
Maximum Humidity 100    
Minimum Humidity 53    
Precipitation  
Precipitation 0.00 in 0.08 in 2.09 in (2013)
Month to date precipitation 0.48 2.10  
Year to date precipitation 35.44 47.59  
Snow  
Snow 0.00 in 0.00 in - ()
Month to date snowfall 0.0  
Since 1 July snowfall 0.0 0.0  
Since 1 September snowfall 0.0 0.0  
Snow Depth 0.00 in    
Sea Level Pressure  
Sea Level Pressure 30.30 in    
Wind  
Wind Speed 5 mph (East)    
Max Wind Speed 14 mph    
Max Gust Speed 17 mph    
Visibility 10 miles    
Events      
T = Trace of Precipitation, MM = Missing Value Source: NWS Daily Summary

Daily Weather History Graph

Daily Weather History Graph

Search for Another Location

Airport:

Trip Planner

Search our weather history database for the weather conditions in past years. The results will help you decide how hot, cold, wet, or windy it might be!

Date:

Astronomy

Nov. 26, 2011 Rise Set
Actual Time 7:00 AM EST 5:14 PM EST
Civil Twilight 6:33 AM EST 5:41 PM EST
Nautical Twilight 6:03 AM EST 6:11 PM EST
Astronomical Twilight 5:33 AM EST 6:41 PM EST
Moon 8:26 AM EST (11/26) 6:46 PM EST (11/26)
Length of Visible Light 11h 07m
Length of Day
10h 14m
Waxing Crescent, 3% of the Moon is Illuminated
Nov 26
Waxing Crescent
Dec 2
First Quarter
Dec 10
Full
Dec 17
Last Quarter
Dec 24
New

Hourly Weather History & Observations

Time (EST) Temp. Windchill Dew Point Humidity Pressure Visibility Wind Dir Wind Speed Gust Speed Precip Events Conditions
12:56 AM 46.9 °F - 46.0 °F 97% 30.32 in 10.0 mi NE 4.6 mph - N/A   Clear
1:56 AM 46.9 °F - 46.0 °F 97% 30.32 in 10.0 mi Calm Calm - N/A   Clear
2:56 AM 50.0 °F - 48.0 °F 93% 30.31 in 10.0 mi NNE 3.5 mph - N/A   Partly Cloudy
3:56 AM 44.6 °F 43.1 °F 42.8 °F 93% 30.30 in 10.0 mi NNE 3.5 mph - N/A   Partly Cloudy
4:56 AM 46.0 °F 43.9 °F 44.1 °F 93% 30.30 in 10.0 mi North 4.6 mph - N/A   Partly Cloudy
5:56 AM 44.6 °F - 42.8 °F 93% 30.30 in 10.0 mi Calm Calm - N/A   Scattered Clouds
6:56 AM 46.9 °F - 45.0 °F 93% 30.32 in 10.0 mi Calm Calm - N/A   Scattered Clouds
7:56 AM 51.1 °F - 48.9 °F 92% 30.34 in 10.0 mi Calm Calm - N/A   Overcast
8:56 AM 57.0 °F - 52.0 °F 83% 30.36 in 10.0 mi Calm Calm - N/A   Overcast
9:56 AM 64.0 °F - 52.0 °F 65% 30.36 in 10.0 mi East 3.5 mph - N/A   Overcast
10:56 AM 68.0 °F - 51.1 °F 55% 30.36 in 10.0 mi East 5.8 mph - N/A   Overcast
11:56 AM 70.0 °F - 51.1 °F 51% 30.33 in 10.0 mi East 4.6 mph - N/A   Overcast
12:56 PM 72.0 °F - 53.1 °F 51% 30.31 in 10.0 mi SE 12.7 mph 17.3 mph N/A   Overcast
1:56 PM 69.1 °F - 53.1 °F 57% 30.28 in 10.0 mi SE 11.5 mph - N/A   Mostly Cloudy
2:56 PM 71.1 °F - 53.1 °F 53% 30.27 in 10.0 mi SE 10.4 mph - N/A   Mostly Cloudy
3:56 PM 70.0 °F - 53.1 °F 55% 30.28 in 10.0 mi ESE 11.5 mph - N/A   Mostly Cloudy
4:56 PM 66.0 °F - 53.1 °F 63% 30.28 in 10.0 mi ESE 10.4 mph - N/A   Mostly Cloudy
5:56 PM 64.0 °F - 53.1 °F 67% 30.27 in 10.0 mi East 9.2 mph - N/A   Mostly Cloudy
6:56 PM 62.1 °F - 54.0 °F 75% 30.27 in 10.0 mi East 9.2 mph - N/A   Scattered Clouds
7:56 PM 62.1 °F - 55.0 °F 78% 30.27 in 10.0 mi East 8.1 mph - N/A   Mostly Cloudy
8:56 PM 60.1 °F - 55.0 °F 83% 30.27 in 10.0 mi Calm Calm - N/A   Mostly Cloudy
9:56 PM 59.0 °F - 55.0 °F 87% 30.26 in 10.0 mi East 3.5 mph - N/A   Scattered Clouds
10:56 PM 59.0 °F - 55.9 °F 90% 30.25 in 10.0 mi Calm Calm - N/A   Mostly Cloudy
11:56 PM 60.1 °F - 55.9 °F 86% 30.24 in 10.0 mi Calm Calm - N/A   Mostly Cloudy